Location: Unnamed
(56.8174°N, 60.5923°E)
Time: 12:46:07
(UTC+05:00)

Falcon 9 debris - Visible Passes

Search period start: 22 January 2022 00:00
Search period end: 01 February 2022 00:00
Orbit: 410 x 416 km, 53.0° (Epoch: 22 January)

Date Brightness Start Highest point End Pass type
(mag) Time Alt. Az. Time Alt. Az. Time Alt. Az.
26 Jan ? 07:42:47 10° SSE 07:43:51 11° SE 07:44:54 10° ESE visible
28 Jan ? 07:38:22 10° SSW 07:40:46 19° SSE 07:43:11 10° ESE visible
29 Jan ? 06:49:35 10° S 06:51:22 14° SE 06:53:10 10° ESE visible
30 Jan ? 07:34:49 10° SW 07:37:43 28° SSE 07:40:37 10° E visible
31 Jan ? 06:46:13 14° SSW 06:48:12 22° SSE 06:50:50 10° E visible
